FW2330 Weather Reports


time (UTC)temp
C
wind
direction
speed
KPH
gust
KPH
rain 1hr
cm
rain 24hr
cm
rain mn
cm
humidity
%
barometer
mb
20260505073058 31 138 0.0 6.4 0.00 0.00 0.00 61 1006.7
20260505071614 31 138 0.0 6.4 0.00 0.00 0.00 61 1006.9
20260505070111 31 144 0.0 6.4 0.00 0.00 0.00 59 1007.0
20260505064559 31 137 0.0 4.8 0.00 0.00 0.00 60 1007.1
20260505063056 31 203 0.0 14.5 0.00 0.00 0.00 60 1006.8
20260505061559 32 133 1.6 12.9 0.00 0.00 0.00 60 1007.1
20260505060054 31 209 3.2 14.5 0.00 0.00 0.00 60 1007.1
20260505054556 31 143 4.8 16.1 0.00 0.00 0.00 60 1007.3
20260505053101 32 211 0.0 12.9 0.00 0.00 0.00 59 1007.5
20260505051550 32 97 1.6 14.5 0.00 0.00 0.00 59 1007.7
20260505041519 32 157 4.8 12.9 0.00 0.00 0.00 56 1008.5
20260505040032 33 142 3.2 12.9 0.00 0.00 0.00 55 1008.7
20260505034516 32 133 3.2 9.7 0.00 0.00 0.00 55 1008.8
20260505033015 32 92 1.6 12.9 0.00 0.00 0.00 57 1009.2
20260505031512 32 124 6.4 17.7 0.00 0.00 0.00 56 1009.5
20260505030023 32 138 1.6 12.9 0.00 0.00 0.00 58 1009.6
20260505024512 32 139 1.6 14.5 0.00 0.00 0.00 58 1009.6
20260505023009 32 144 0.0 11.3 0.00 0.00 0.00 58 1009.8
20260505021509 31 174 1.6 11.3 0.00 0.00 0.00 59 1010.0
20260505020008 31 232 0.0 6.4 0.00 0.00 0.00 62 1010.2
20260505014507 31 204 0.0 6.4 0.00 0.00 0.00 63 1010.3
20260505013006 31 219 1.6 11.3 0.00 0.00 0.00 61 1010.4
20260505011509 31 355 0.0 8.0 0.00 0.00 0.00 60 1010.3
20260505010003 31 82 0.0 6.4 0.00 0.00 0.00 61 1010.2
20260505004600 31 88 3.2 9.7 0.00 0.00 0.00 61 1010.4
20260505003104 30 66 0.0 6.4 0.00 0.00 0.00 63 1010.4
20260505001553 30 110 0.0 8.0 0.00 0.00 0.00 65 1010.2
20260505000100 30 49 1.6 8.0 0.00 0.00 0.00 66 1010.4
20260504234547 28 68 0.0 8.0 0.00 0.00 0.00 68 1010.4
20260504233045 28 68 0.0 6.4 0.00 0.00 0.00 70 1010.4
20260504231543 28 33 0.0 3.2 0.00 0.00 0.00 70 1010.4
20260504230042 28 51 0.0 3.2 0.00 0.00 0.00 70 1010.2
20260504224538 27 26 0.0 1.6 0.00 0.00 0.00 73 1009.8
20260504223036 27 26 0.0 0.0 0.00 0.00 0.00 75 1009.6
20260504221536 26 26 0.0 1.6 0.00 0.00 0.00 77 1009.3
20260504220032 25 15 0.0 0.0 0.00 0.00 0.00 77 1009.2
20260504214535 25 15 0.0 0.0 0.00 0.00 0.00 78 1009.3
20260504213031 25 15 0.0 0.0 0.00 0.00 0.00 78 1009.3
20260504211530 25 15 0.0 0.0 0.00 0.00 0.00 78 1009.0
20260504210030 25 15 0.0 0.0 0.00 0.00 0.00 78 1008.9
20260504204529 25 15 0.0 0.0 0.00 0.00 0.00 78 1008.9
20260504203032 25 15 0.0 0.0 0.00 0.00 0.00 78 1008.8
20260504201527 25 15 0.0 0.0 0.00 0.00 0.00 78 1008.7
20260504200037 25 15 0.0 0.0 0.00 0.00 0.00 78 1008.7
20260504194525 25 15 0.0 0.0 0.00 0.00 0.00 78 1008.7
20260504193025 25 15 0.0 0.0 0.00 0.00 0.00 78 1008.8
20260504191536 25 15 0.0 0.0 0.00 0.00 0.00 77 1008.9
20260504190022 25 15 0.0 0.0 0.00 0.00 0.00 77 1008.9
20260504184521 25 15 0.0 0.0 0.00 0.00 0.00 76 1008.9
20260504183035 25 15 0.0 0.0 0.00 0.00 0.00 76 1009.0
20260504181523 26 15 0.0 0.0 0.00 0.00 0.00 76 1009.0
20260504180020 26 15 0.0 0.0 0.00 0.00 0.00 75 1009.1
20260504174518 26 15 0.0 0.0 0.00 0.00 0.00 75 1009.3
20260504173012 26 15 0.0 0.0 0.00 0.00 0.00 74 1009.4
20260504171511 26 15 0.0 0.0 0.00 0.00 0.00 75 1009.8
20260504081546 28 15 0.0 16.1 0.00 0.00 0.00 70 1009.3